Location: Piotrkow Trybunalski
(51.4000°N, 19.6830°E)
Time: 09:24:20
(UTC+01:00)

BlueWalker 3 - Pass Details

Date: 03 December 2022
Orbit: 499 x 517 km, 53.2° (Epoch: 29 January)

Event Time Altitude Azimuth Distance (km) Brightness Sun altitude
Rises 18:16:30 0° 285° (WNW) 2,630 6.8 -24.1°
Reaches altitude 10° 18:18:42 10° 286° (WNW) 1,738 5.6 -24.4°
Enters shadow 18:21:45 52° 296° (WNW) 644 2.7 -24.9°
